DW3741 Weather Reports


Display with metric or nautical units.
time (UTC)temp
F
wind
direction
speed
MPH
gust
MPH
rain 1hr
in
rain 24hr
in
rain mn
in
humidity
%
barometer
mb
20260507022607 49 42 2.0 7.0 0.00 0.06 0.00 80 1012.6
20260507022104 49 42 2.0 7.0 0.00 0.06 0.00 80 1012.5
20260507021556 49 35 1.0 6.0 0.00 0.06 0.00 80 1012.4
20260507021055 49 18 2.0 5.0 0.00 0.06 0.00 80 1012.5
20260507013135 50 17 1.0 3.0 0.00 0.06 0.00 80 1012.3
20260507012557 50 34 0.0 3.0 0.00 0.06 0.00 80 1012.3
20260507012052 50 29 0.0 3.0 0.00 0.06 0.00 80 1012.2
20260507011547 50 31 1.0 3.0 0.00 0.06 0.00 79 1012.2
20260507004612 51 31 0.0 1.0 0.00 0.06 0.00 78 1012.1
20260507004156 51 31 0.0 2.0 0.00 0.06 0.00 77 1012.1
20260507003241 51 31 1.0 3.0 0.00 0.06 0.00 77 1012.1
20260507002742 51 29 1.0 3.0 0.00 0.06 0.00 77 1012.1
20260507001704 51 31 1.0 4.0 0.00 0.06 0.00 77 1012.0
20260506232916 51 36 0.0 3.0 0.00 0.06 0.06 76 1011.8
20260506225039 51 36 0.0 2.0 0.00 0.06 0.06 75 1011.7
20260506223509 51 36 0.0 4.0 0.00 0.06 0.06 75 1011.6
20260506222930 51 36 2.0 4.0 0.00 0.06 0.06 75 1011.6
20260506222431 51 36 2.0 5.0 0.00 0.06 0.06 75 1011.6
20260506220909 51 25 1.0 3.0 0.00 0.06 0.06 75 1011.5
20260506214244 51 29 2.0 5.0 0.00 0.06 0.06 75 1011.3
20260506213741 51 28 1.0 4.0 0.00 0.06 0.06 75 1011.2
20260506212217 51 28 1.0 7.0 0.00 0.06 0.06 75 1011.0
20260506211301 51 36 1.0 3.0 0.00 0.06 0.06 76 1011.8
20260506205603 52 27 1.0 4.0 0.00 0.06 0.06 75 1010.7
20260506202920 52 27 2.0 4.0 0.00 0.06 0.06 75 1010.4
20260506202424 52 24 1.0 3.0 0.00 0.06 0.06 74 1010.4
20260506201841 52 24 1.0 4.0 0.00 0.06 0.06 74 1010.3
20260506194915 52 28 3.0 13.0 0.00 0.06 0.06 73 1010.0
20260506193420 52 14 4.0 10.0 0.00 0.06 0.06 73 1009.9
20260506192919 52 31 4.0 11.0 0.00 0.06 0.06 74 1009.8
20260506192414 52 355 4.0 11.0 0.00 0.06 0.06 75 1009.8
20260506191303 52 25 2.0 6.0 0.00 0.06 0.06 76 1009.6
20260506190331 51 22 4.0 7.0 0.00 0.06 0.06 75 1009.5
20260506185335 51 27 4.0 10.0 0.00 0.06 0.06 77 1009.6
20260506184305 51 34 5.0 12.0 0.00 0.06 0.06 77 1009.6
20260506182806 51 24 3.0 7.0 0.00 0.06 0.06 78 1009.6
20260506182348 51 24 2.0 7.0 0.00 0.06 0.06 78 1009.7
20260506181311 51 17 5.0 11.0 0.00 0.06 0.06 78 1009.7
20260506180312 51 29 4.0 11.0 0.00 0.06 0.06 78 1009.7
20260506174258 51 28 2.0 9.0 0.00 0.06 0.06 79 1009.6
20260506172658 51 24 2.0 7.0 0.00 0.06 0.06 80 1009.6
20260506171624 51 22 2.0 6.0 0.00 0.06 0.06 79 1009.4
20260506171244 51 35 2.0 7.0 0.00 0.06 0.06 79 1009.5
20260506161712 51 14 6.0 11.0 0.00 0.06 0.06 76 1009.3
20260506161252 51 24 5.0 11.0 0.00 0.06 0.06 76 1009.2
20260506160219 52 24 4.0 11.0 0.00 0.06 0.06 75 1009.3
20260506153242 52 29 4.0 11.0 0.00 0.06 0.06 73 1009.1
20260506150743 52 28 3.0 7.0 0.00 0.06 0.06 72 1008.9
20260506145705 52 39 2.0 9.0 0.00 0.06 0.06 72 1008.9
20260506145246 52 36 3.0 10.0 0.00 0.06 0.06 72 1008.9
20260506142041 52 28 3.0 11.0 0.00 0.06 0.06 71 1008.8
20260506141537 52 41 4.0 11.0 0.00 0.06 0.06 71 1008.7
20260506140613 52 27 2.0 11.0 0.00 0.06 0.06 73 1008.8
20260506135621 52 28 3.0 7.0 0.00 0.06 0.06 74 1008.7
20260506134130 52 21 3.0 7.0 0.00 0.06 0.06 74 1008.6
20260506132632 52 17 4.0 10.0 0.00 0.06 0.06 74 1008.6
20260506125637 52 32 4.0 10.0 0.00 0.06 0.06 74 1008.5
20260506125130 52 35 4.0 10.0 0.00 0.06 0.06 74 1008.4
20260506124627 52 32 3.0 9.0 0.00 0.06 0.06 75 1008.4
20260506124119 51 35 4.0 6.0 0.00 0.06 0.06 74 1008.4
20260506123621 51 22 2.0 6.0 0.00 0.06 0.06 74 1008.3
20260506122136 51 21 2.0 6.0 0.00 0.06 0.06 76 1008.4
20260506114226 49 41 4.0 10.0 0.00 0.06 0.06 81 1008.3
20260506105212 49 25 5.0 9.0 0.00 0.06 0.06 87 1007.9
20260506100745 49 31 3.0 5.0 0.00 0.06 0.06 89 1007.6
20260506095220 49 340 2.0 7.0 0.00 0.06 0.06 90 1007.5
20260506092206 49 4 2.0 5.0 0.00 0.06 0.06 91 1007.4
20260506091213 48 336 2.0 7.0 0.00 0.06 0.06 91 1007.3
20260506073135 47 34 2.0 4.0 0.02 0.05 0.06 91 1007.3
20260506071649 47 18 1.0 3.0 0.02 0.05 0.06 91 1007.2
20260506071153 47 21 2.0 3.0 0.02 0.05 0.05 91 1007.1
20260506070614 47 11 1.0 3.0 0.01 0.04 0.05 91 1007.2
20260506061529 47 27 1.0 4.0 0.02 0.04 0.04 91 1007.3
20260506060537 48 36 1.0 4.0 0.03 0.01 0.03 91 1007.3
20260506050956 48 32 1.0 5.0 0.02 0.01 0.02 89 1007.5
20260506043458 48 39 1.0 6.0 0.01 0.00 0.01 88 1007.5
20260506042958 48 29 2.0 6.0 0.01 0.00 0.01 88 1007.6
20260506034954 48 39 2.0 6.0 0.00 0.00 0.00 87 1007.8
20260506033455 49 17 2.0 10.0 0.00 0.00 0.00 86 1007.8
20260506032505 49 34 4.0 10.0 0.00 0.00 0.00 86 1007.9
20260506032005 49 46 2.0 10.0 0.00 0.00 0.00 86 1007.8
20260506030934 49 38 1.0 9.0 0.00 0.00 0.00 86 1007.9